Home   Weather   Jersey City   Past weeks

Flag for USA Past Weather in Jersey City, New Jersey, USA — Yesterday and Last 2 Weeks

Now
64 °F

Partly cloudy.


Feels Like: 64 °F
Forecast: 51 / 66 °F
Wind: 10 mph from North

Location: Newark International Airport

Current Time: Apr 30, 2017 at 5:17:13 am

Latest Report: Apr 30, 2017 at 3:51 am


Visibility: 10 mi

Pressure: 30.14 "Hg

Humidity: 45%

Dew Point: 42 °F

Location of Jersey CityLocation

Past Weather in Jersey City — Graph

°F

Jersey City Temperature Yesterday

Maximum temperature yesterday: 86 °F (at 3:51 pm)
Minimum temperature yesterday: 65 °F (at 6:51 am)
Average temperature yesterday: 75 °F

High & Low Weather Summary for the Past Weeks

 TemperatureHumidityPressure
High87 °F (Apr 16, 1:51 pm)100% (Apr 26, 12:51 am)30.53 "Hg (Apr 26, 12:51 am)
Low46 °F (Apr 19, 6:51 am)17% (Apr 17, 3:51 pm)29.74 "Hg (Apr 26, 5:51 am)
Average59 °F71%30.04 "Hg
* Reported Apr 15 2:51 am — Apr 30 2:51 am, Jersey City, Weather by CustomWeather, © 2017

Note: Actual official high and low records may vary slightly from our data, if they occured in-between our weather recording intervals... More about our weather records

Advertising

Jersey City Weather History for the Previous 24 Hours

Scroll right to see more
 ConditionsComfort  
Time TempWeatherWind HumidityBarometerVisibility
2:51 am
Sun, Apr 30
63 °FPassing clouds.8 mph54%30.13 "Hg10 mi
1:51 am67 °FPartly cloudy.12 mph59%30.12 "Hg10 mi
12:51 am69 °FPassing clouds.13 mph57%30.12 "Hg10 mi
11:51 pm
Sat, Apr 29
72 °FPassing clouds.16 mph55%30.11 "Hg10 mi
10:51 pm75 °FPassing clouds.14 mph52%30.09 "Hg10 mi
9:51 pm77 °FPassing clouds.16 mph50%30.08 "Hg10 mi
8:51 pm78 °FPassing clouds.13 mph50%30.04 "Hg10 mi
7:51 pm79 °FPassing clouds.14 mph48%30.00 "Hg10 mi
6:51 pm81 °FBroken clouds.15 mph45%29.98 "Hg10 mi
5:51 pm83 °FBroken clouds.28 mph43%29.97 "Hg10 mi
4:51 pm85 °FOvercast.23 mph40%29.98 "Hg10 mi
3:51 pm86 °FBroken clouds.25 mph42%29.96 "Hg10 mi
2:51 pm85 °FBroken clouds.24 mph45%29.96 "Hg10 mi
1:51 pm84 °FBroken clouds.17 mph46%29.94 "Hg10 mi
12:51 pm84 °FBroken clouds.16 mph46%29.93 "Hg10 mi
11:51 am82 °FBroken clouds.18 mph49%29.98 "Hg10 mi
10:51 am78 °FPartly sunny.20 mph62%29.98 "Hg10 mi
9:51 am74 °FPartly sunny.13 mph76%30.03 "Hg10 mi
9:14 am72 °FBroken clouds.10 mph81%30.03 "Hg10 mi
7:51 am66 °FMore clouds than sun.3 mph90%29.96 "Hg10 mi
6:51 am65 °FBroken clouds.5 mph94%29.97 "Hg10 mi
6:27 am66 °FBroken clouds.9 mph90%29.97 "Hg10 mi
5:51 am66 °FLight rain. Overcast.10 mph90%29.97 "Hg10 mi
5:15 am66 °FStrong thunderstorms. Overcast.6 mph84%30.00 "Hg3 mi
5:03 am66 °FThunderstorms. Overcast.3 mph81%29.97 "Hg5 mi
Weather by CustomWeather, © 2017

See weather overviewHow to use our weather pages